Location: Appeville
(49.3218°N, 1.3427°W)
Time: 06:07:44
(UTC+00:00)

Cosmos 2082 Rocket - Pass Details

Date: 08 December 2019
Orbit: 834 x 852 km, 71.0° (Epoch: 25 January)

Event Time Altitude Azimuth Distance (km) Brightness Sun altitude
Exits shadow 06:18:07 - 341° (NNW) 3,028 4.7 -13.7°
Reaches altitude 10° 06:20:30 10° 358° (N) 2,471 4.4 -13.4°
Maximum altitude 06:23:31 14° 30° (NNE) 2,165 4.5 -12.9°
Drops below altitude 10° 06:26:31 10° 63° (ENE) 2,460 5.2 -12.4°
Sets 06:30:13 0° 87° (E) 3,388 6.7 -11.9°
